Location: Newark
(48.8833°N, 0.9236°W)
Time: 05:41:34
(UTC+00:00)

Tiros 1 despin weight - Pass Details

Date: 18 November 2019
Orbit: 594 x 642 km, 48.2° (Epoch: 08 December)

Event Time Altitude Azimuth Distance (km) Brightness Sun altitude
Rises 15:37:50 0° 259° (WSW) 2,830 ? 5.0°
Reaches altitude 10° 15:40:07 10° 258° (WSW) 1,933 ? 4.7°
Maximum altitude 15:44:33 79° 172° (S) 618 ? 4.1°
Drops below altitude 10° 15:49:02 10° 86° (E) 1,958 ? 3.5°
Sets 15:51:21 0° 86° (E) 2,870 ? 3.2°
